Location: Reutlingen
(48.4911°N, 9.2587°E)
Time: 19:42:49
(UTC+01:00)

ISS - Pass Details

Date: 13 November 2017
Orbit: 402 x 407 km, 51.6° (Epoch: 22 November)

Event Time Altitude Azimuth Distance (km) Brightness Sun altitude
Exits shadow 06:35:12 13° 280° (W) 1,311 -1.9 -8.9°
Maximum altitude 06:37:54 39° 213° (SSW) 613 -3.0 -8.5°
Drops below altitude 10° 06:40:58 10° 142° (SE) 1,450 -0.1 -8.0°
Sets 06:43:06 0° 134° (SE) 2,306 1.3 -7.7°
